This is the latest recevied weather packets stored in our database for station/object KG7BDA. If no packets are shown the sender has not sent any weather packets the latest 10 day(s).
| Time | Temp. | Humidity | Pressure | Rain* | Wind** | Luminosity | Snow |
|---|---|---|---|---|---|---|---|
| 1777887197 | 12.78° C | 59% | 1008.3 hPa | 0 mm | - | - | - |
| 1777886837 | 12.78° C | 59% | 1008.2 hPa | 0 mm | - | - | - |
| 1777886477 | 12.78° C | 58% | 1008.2 hPa | 0 mm | - | - | - |
| 1777886117 | 12.78° C | 58% | 1008.3 hPa | 0 mm | - | - | - |
| 1777885757 | 12.78° C | 58% | 1008.4 hPa | 0 mm | - | - | - |
| 1777885397 | 13.33° C | 56% | 1008.4 hPa | 0 mm | - | - | - |
| 1777885038 | 13.33° C | 57% | 1008.4 hPa | 0 mm | - | - | - |
| 1777884677 | 12.78° C | 58% | 1008.6 hPa | 0 mm | - | - | - |
| 1777884317 | 13.33° C | 56% | 1008.6 hPa | 0 mm | - | - | - |
| 1777883956 | 12.78° C | 58% | 1008.5 hPa | 0 mm | - | - | - |
| 1777883598 | 12.78° C | 56% | 1008.5 hPa | 0 mm | - | - | - |
| 1777883237 | 13.33° C | 54% | 1008.4 hPa | 0 mm | - | - | - |
| 1777882877 | 13.33° C | 56% | 1008.4 hPa | 0 mm | - | - | - |
| 1777882517 | 13.33° C | 56% | 1008.6 hPa | 0 mm | - | - | - |
| 1777882156 | 13.33° C | 55% | 1008.7 hPa | 0 mm | - | - | - |
| 1777881796 | 13.89° C | 55% | 1008.7 hPa | 0 mm | - | - | - |
| 1777881437 | 13.33° C | 54% | 1008.8 hPa | 0 mm | - | - | - |
| 1777881077 | 13.33° C | 53% | 1008.8 hPa | 0 mm | - | - | - |
| 1777880356 | 13.89° C | 52% | 1008.7 hPa | 0 mm | - | - | - |
| 1777879996 | 13.89° C | 52% | 1008.7 hPa | 0 mm | - | - | - |
| 1777879636 | 14.44° C | 50% | 1008.8 hPa | 0 mm | - | - | - |
| 1777879277 | 15° C | 48% | 1008.8 hPa | 0 mm | - | - | - |
| 1777878918 | 15° C | 48% | 1008.7 hPa | 0 mm | - | - | - |
| 1777878556 | 15° C | 48% | 1008.7 hPa | 0 mm | - | - | - |
| 1777878196 | 15° C | 47% | 1008.7 hPa | 0 mm | - | - | - |
* Rain latest hour (hover to see other rain measurements)
** Current wind speed in m/s (hover to see current wind gust speed)